This is the latest recevied weather packets stored in our database for station/object F1AGU-13. If no packets are shown the sender has not sent any weather packets the latest 10 day(s).
| Time | Temp. | Humidity | Pressure | Rain* | Wind** | Luminosity | Snow |
|---|---|---|---|---|---|---|---|
| 1777385117 | 16.67° C | 64% | 1014.5 hPa | 0 mm | - | - | - |
| 1777384517 | 17.22° C | 63% | 1014.5 hPa | 0 mm | - | - | - |
| 1777383917 | 17.22° C | 62% | 1014.5 hPa | 0 mm | - | - | - |
| 1777383317 | 17.78° C | 60% | 1014.8 hPa | 0 mm | - | - | - |
| 1777382717 | 17.78° C | 60% | 1014.6 hPa | 0 mm | - | - | - |
| 1777382117 | 17.78° C | 61% | 1014.6 hPa | 0 mm | - | - | - |
| 1777381517 | 17.78° C | 62% | 1014.7 hPa | 0 mm | - | - | - |
| 1777380917 | 17.78° C | 61% | 1014.3 hPa | 0 mm | - | - | - |
| 1777380317 | 17.22° C | 62% | 1014.6 hPa | 0 mm | - | - | - |
| 1777379716 | 17.22° C | 61% | 1014.7 hPa | 0 mm | - | - | - |
| 1777379117 | 17.22° C | 64% | 1014.8 hPa | 0 mm | - | - | - |
| 1777378517 | 17.22° C | 64% | 1014.7 hPa | 0 mm | - | - | - |
| 1777377916 | 17.22° C | 65% | 1014.7 hPa | 0 mm | - | - | - |
| 1777377317 | 17.22° C | 66% | 1014.7 hPa | 0 mm | - | - | - |
| 1777376716 | 16.67° C | 67% | 1014.7 hPa | 0 mm | - | - | - |
| 1777376116 | 16.67° C | 66% | 1014.7 hPa | 0 mm | - | - | - |
| 1777375516 | 16.11° C | 65% | 1014.8 hPa | 0 mm | - | - | - |
| 1777374916 | 16.11° C | 66% | 1014.8 hPa | 0 mm | - | - | - |
| 1777374316 | 16.11° C | 63% | 1014.8 hPa | 0 mm | - | - | - |
| 1777373716 | 16.11° C | 63% | 1014.9 hPa | 0 mm | - | - | - |
| 1777373116 | 16.11° C | 66% | 1015 hPa | 0 mm | - | - | - |
| 1777372516 | 16.11° C | 61% | 1015 hPa | 0 mm | - | - | - |
| 1777371916 | 16.11° C | 65% | 1014.9 hPa | 0 mm | - | - | - |
| 1777371316 | 16.11° C | 66% | 1015 hPa | 0 mm | - | - | - |
| 1777370716 | 15.56° C | 64% | 1015.1 hPa | 0 mm | - | - | - |
* Rain latest hour (hover to see other rain measurements)
** Current wind speed in m/s (hover to see current wind gust speed)